| time (UTC) | temp F | wind direction | speed knots | gust knots | rain 1hr in | rain 24hr in | rain mn in | humidity % | barometer mb |
| 20260906101610 | 91 | 351 | 4.3 | 9.6 | 0.00 | 0.00 | 0.00 | 35 | 1017.1 |
| 20260906101035 | 91 | 350 | 3.5 | 11.3 | 0.00 | 0.00 | 0.00 | 37 | 1017.1 |
| 20260906100536 | 91 | 351 | 6.1 | 11.3 | 0.00 | 0.00 | 0.00 | 38 | 1017.3 |
| 20260906100059 | 91 | 351 | 5.2 | 11.3 | 0.00 | 0.00 | 0.00 | 38 | 1017.2 |
| 20260906095535 | 91 | 350 | 6.1 | 9.6 | 0.00 | 0.00 | 0.00 | 38 | 1017.1 |
| 20260906095035 | 91 | 351 | 4.3 | 9.6 | 0.00 | 0.00 | 0.00 | 38 | 1017.1 |
| 20260906094602 | 91 | 351 | 6.1 | 9.6 | 0.00 | 0.00 | 0.00 | 38 | 1017.2 |
| 20260906094035 | 91 | 350 | 5.2 | 11.3 | 0.00 | 0.00 | 0.00 | 38 | 1017.1 |
| 20260906093536 | 91 | 351 | 4.3 | 11.3 | 0.00 | 0.00 | 0.00 | 39 | 1017.2 |
| 20260906093103 | 91 | 351 | 4.3 | 11.3 | 0.00 | 0.00 | 0.00 | 41 | 1017.2 |
| 20260906092535 | 90 | 351 | 6.1 | 9.6 | 0.00 | 0.00 | 0.00 | 39 | 1017.2 |
| 20260906092036 | 90 | 351 | 5.2 | 9.6 | 0.00 | 0.00 | 0.00 | 42 | 1017.3 |
| 20260906091601 | 90 | 351 | 5.2 | 9.6 | 0.00 | 0.00 | 0.00 | 42 | 1017.3 |
| 20260906091035 | 90 | 351 | 5.2 | 9.6 | 0.00 | 0.00 | 0.00 | 44 | 1017.4 |
| 20260906090535 | 90 | 351 | 1.7 | 8.7 | 0.00 | 0.00 | 0.00 | 41 | 1017.4 |
| 20260906090057 | 90 | 350 | 3.5 | 8.7 | 0.00 | 0.00 | 0.00 | 41 | 1017.6 |
| 20260906085538 | 90 | 351 | 3.5 | 8.7 | 0.00 | 0.00 | 0.00 | 42 | 1017.6 |
| 20260906085036 | 89 | 351 | 4.3 | 9.6 | 0.00 | 0.00 | 0.00 | 39 | 1017.6 |
| 20260906084601 | 89 | 350 | 4.3 | 9.6 | 0.00 | 0.00 | 0.00 | 40 | 1017.6 |
| 20260906084036 | 89 | 351 | 4.3 | 7.8 | 0.00 | 0.00 | 0.00 | 42 | 1017.5 |
| 20260906083537 | 88 | 350 | 2.6 | 8.7 | 0.00 | 0.00 | 0.00 | 39 | 1017.6 |
| 20260906083104 | 88 | 350 | 4.3 | 8.7 | 0.00 | 0.00 | 0.00 | 39 | 1017.5 |
| 20260906082530 | 88 | 351 | 2.6 | 7.0 | 0.00 | 0.00 | 0.00 | 34 | 1017.6 |
| 20260906082034 | 88 | 351 | 3.5 | 8.7 | 0.00 | 0.00 | 0.00 | 34 | 1017.5 |
| 20260906081558 | 88 | 350 | 5.2 | 8.7 | 0.00 | 0.00 | 0.00 | 36 | 1017.6 |
| 20260906081035 | 88 | 350 | 3.5 | 7.8 | 0.00 | 0.00 | 0.00 | 33 | 1017.6 |
| 20260906080533 | 88 | 350 | 4.3 | 7.8 | 0.00 | 0.00 | 0.00 | 34 | 1017.6 |
| 20260906080100 | 88 | 351 | 2.6 | 7.8 | 0.00 | 0.00 | 0.00 | 37 | 1017.6 |
| 20260906075534 | 87 | 350 | 3.5 | 7.8 | 0.00 | 0.00 | 0.00 | 37 | 1017.7 |
| 20260906075033 | 87 | 351 | 3.5 | 7.8 | 0.00 | 0.00 | 0.00 | 33 | 1017.6 |
| 20260906074554 | 87 | 350 | 2.6 | 7.8 | 0.00 | 0.00 | 0.00 | 35 | 1017.6 |
| 20260906074030 | 87 | 350 | 2.6 | 7.0 | 0.00 | 0.00 | 0.00 | 35 | 1017.5 |
| 20260906073531 | 87 | 350 | 2.6 | 7.0 | 0.00 | 0.00 | 0.00 | 34 | 1017.5 |
| 20260906073052 | 87 | 351 | 3.5 | 5.2 | 0.00 | 0.00 | 0.00 | 33 | 1017.4 |
| 20260906072534 | 87 | 351 | 3.5 | 5.2 | 0.00 | 0.00 | 0.00 | 33 | 1017.5 |
| 20260906072035 | 87 | 350 | 1.7 | 5.2 | 0.00 | 0.00 | 0.00 | 32 | 1017.5 |
| 20260906071600 | 87 | 350 | 2.6 | 3.5 | 0.00 | 0.00 | 0.00 | 31 | 1017.4 |
| 20260906071033 | 86 | 351 | 0.9 | 3.5 | 0.00 | 0.00 | 0.00 | 32 | 1017.4 |
| 20260906070535 | 86 | 0 | 0.9 | 3.5 | 0.00 | 0.00 | 0.00 | 32 | 1017.3 |
| 20260906070100 | 86 | 350 | 0.9 | 3.5 | 0.00 | 0.00 | 0.00 | 32 | 1017.3 |
| 20260906065534 | 86 | 350 | 0.9 | 4.3 | 0.00 | 0.00 | 0.00 | 31 | 1017.2 |
| 20260906065033 | 85 | 0 | 1.7 | 4.3 | 0.00 | 0.00 | 0.00 | 31 | 1017.1 |
| 20260906064553 | 85 | 350 | 1.7 | 4.3 | 0.00 | 0.00 | 0.00 | 32 | 1017.1 |
| 20260906064034 | 85 | 350 | 0.9 | 1.7 | 0.00 | 0.00 | 0.00 | 32 | 1017.0 |
| 20260906063533 | 85 | 0 | 0.0 | 2.6 | 0.00 | 0.00 | 0.00 | 34 | 1016.9 |
| 20260906063101 | 84 | 0 | 0.9 | 2.6 | 0.00 | 0.00 | 0.00 | 34 | 1016.9 |
| 20260906062535 | 85 | 350 | 0.9 | 1.7 | 0.00 | 0.00 | 0.00 | 33 | 1016.8 |
| 20260906062033 | 85 | 352 | 0.0 | 0.9 | 0.00 | 0.00 | 0.00 | 33 | 1016.7 |
| 20260906061603 | 85 | 0 | 0.0 | 0.9 | 0.00 | 0.00 | 0.00 | 33 | 1016.8 |
| 20260906061035 | 84 | 0 | 0.0 | 0.0 | 0.00 | 0.00 | 0.00 | 34 | 1016.6 |
| 20260906060533 | 84 | 0 | 0.0 | 0.0 | 0.00 | 0.00 | 0.00 | 33 | 1016.7 |
| 20260906060135 | 83 | 0 | 0.0 | 0.0 | 0.00 | 0.00 | 0.00 | 33 | 1016.6 |
| 20260906055535 | 82 | 0 | 0.0 | 0.0 | 0.00 | 0.00 | 0.00 | 35 | 1016.6 |
| 20260906055033 | 81 | 0 | 0.0 | 0.0 | 0.00 | 0.00 | 0.00 | 36 | 1016.5 |
| 20260906054607 | 80 | 0 | 0.0 | 0.0 | 0.00 | 0.00 | 0.00 | 35 | 1016.5 |
| 20260906054031 | 79 | 0 | 0.0 | 0.0 | 0.00 | 0.00 | 0.00 | 36 | 1016.6 |
| 20260906053532 | 77 | 0 | 0.0 | 0.9 | 0.00 | 0.00 | 0.00 | 39 | 1016.6 |
| 20260906053100 | 76 | 0 | 0.0 | 0.9 | 0.00 | 0.00 | 0.00 | 42 | 1016.6 |
| 20260906052539 | 74 | 0 | 0.0 | 1.7 | 0.00 | 0.00 | 0.00 | 44 | 1016.6 |
| 20260906052035 | 73 | 0 | 0.0 | 2.6 | 0.00 | 0.00 | 0.00 | 47 | 1016.6 |
| 20260906051600 | 71 | 352 | 0.9 | 2.6 | 0.00 | 0.00 | 0.00 | 49 | 1016.5 |
| 20260906051035 | 71 | 352 | 0.0 | 0.0 | 0.00 | 0.00 | 0.00 | 51 | 1016.5 |
| 20260906050535 | 70 | 0 | 0.0 | 0.9 | 0.00 | 0.00 | 0.00 | 52 | 1016.5 |
| 20260906050059 | 69 | 0 | 0.0 | 0.9 | 0.00 | 0.00 | 0.00 | 52 | 1016.5 |
| 20260906045535 | 69 | 0 | 0.0 | 1.7 | 0.00 | 0.00 | 0.00 | 50 | 1016.6 |
| 20260906045035 | 68 | 0 | 0.0 | 1.7 | 0.00 | 0.00 | 0.00 | 52 | 1016.5 |
| 20260906044601 | 68 | 352 | 0.9 | 1.7 | 0.00 | 0.00 | 0.00 | 51 | 1016.5 |
| 20260906044035 | 68 | 0 | 0.0 | 1.7 | 0.00 | 0.00 | 0.00 | 52 | 1016.5 |
| 20260906043534 | 68 | 0 | 0.0 | 1.7 | 0.00 | 0.00 | 0.00 | 52 | 1016.5 |
| 20260906043059 | 68 | 352 | 0.0 | 0.0 | 0.00 | 0.00 | 0.00 | 51 | 1016.3 |
| 20260906042535 | 68 | 0 | 0.0 | 0.0 | 0.00 | 0.00 | 0.00 | 50 | 1016.3 |
| 20260906042034 | 68 | 0 | 0.0 | 0.0 | 0.00 | 0.00 | 0.00 | 51 | 1016.2 |
| 20260906041600 | 68 | 0 | 0.0 | 2.6 | 0.00 | 0.00 | 0.00 | 51 | 1016.2 |
| 20260906041034 | 68 | 0 | 0.0 | 2.6 | 0.00 | 0.00 | 0.00 | 50 | 1016.2 |
| 20260906040535 | 68 | 352 | 0.9 | 1.7 | 0.00 | 0.00 | 0.00 | 50 | 1016.1 |
| 20260906040057 | 69 | 0 | 0.0 | 1.7 | 0.00 | 0.00 | 0.00 | 50 | 1016.1 |
| 20260906035536 | 69 | 0 | 0.0 | 0.9 | 0.00 | 0.00 | 0.00 | 50 | 1016.1 |
| 20260906035035 | 69 | 0 | 0.0 | 5.2 | 0.00 | 0.00 | 0.00 | 48 | 1016.1 |
| 20260906034607 | 70 | 0 | 0.0 | 5.2 | 0.00 | 0.00 | 0.00 | 48 | 1016.0 |
| 20260906034034 | 70 | 333 | 1.7 | 5.2 | 0.00 | 0.00 | 0.00 | 47 | 1016.0 |
| 20260906033534 | 70 | 355 | 0.9 | 2.6 | 0.00 | 0.00 | 0.00 | 48 | 1015.9 |
| 20260906033102 | 70 | 301 | 0.9 | 2.6 | 0.00 | 0.00 | 0.00 | 47 | 1015.9 |
| 20260906032535 | 70 | 301 | 0.9 | 2.6 | 0.00 | 0.00 | 0.00 | 48 | 1015.9 |
| 20260906032034 | 70 | 301 | 0.9 | 3.5 | 0.00 | 0.00 | 0.00 | 49 | 1015.9 |
| 20260906031558 | 69 | 301 | 0.9 | 5.2 | 0.00 | 0.00 | 0.00 | 50 | 1015.8 |
| 20260906031035 | 69 | 213 | 2.6 | 5.2 | 0.00 | 0.00 | 0.00 | 51 | 1015.9 |
| 20260906030535 | 68 | 317 | 0.9 | 3.5 | 0.00 | 0.00 | 0.00 | 52 | 1015.8 |
| 20260906030106 | 68 | 19 | 0.9 | 2.6 | 0.00 | 0.00 | 0.00 | 53 | 1015.7 |
| 20260906025537 | 68 | 0 | 0.0 | 0.0 | 0.00 | 0.00 | 0.00 | 55 | 1015.8 |
| 20260906025038 | 69 | 0 | 0.0 | 0.0 | 0.00 | 0.00 | 0.00 | 55 | 1015.6 |
| 20260906024618 | 69 | 0 | 0.0 | 0.0 | 0.00 | 0.00 | 0.00 | 55 | 1015.6 |
| 20260906024035 | 69 | 0 | 0.0 | 1.7 | 0.00 | 0.00 | 0.00 | 56 | 1015.6 |
| 20260906023535 | 69 | 0 | 0.0 | 1.7 | 0.00 | 0.00 | 0.00 | 55 | 1015.6 |
| 20260906023059 | 70 | 0 | 0.0 | 1.7 | 0.00 | 0.00 | 0.00 | 55 | 1015.6 |
| 20260906022534 | 70 | 24 | 0.0 | 1.7 | 0.00 | 0.00 | 0.00 | 55 | 1015.6 |
| 20260906022034 | 70 | 0 | 0.0 | 0.0 | 0.00 | 0.00 | 0.00 | 56 | 1015.5 |
| 20260906021601 | 70 | 0 | 0.0 | 3.5 | 0.00 | 0.00 | 0.00 | 55 | 1015.6 |
| 20260906021034 | 70 | 0 | 0.0 | 3.5 | 0.00 | 0.00 | 0.00 | 55 | 1015.5 |
| 20260906020535 | 70 | 338 | 2.6 | 3.5 | 0.00 | 0.00 | 0.00 | 54 | 1015.6 |
| 20260906020114 | 71 | 352 | 0.0 | 1.7 | 0.00 | 0.00 | 0.00 | 54 | 1015.5 |
| 20260906015535 | 71 | 0 | 0.9 | 3.5 | 0.00 | 0.00 | 0.00 | 54 | 1015.5 |
| 20260906015035 | 71 | 0 | 0.0 | 4.3 | 0.00 | 0.00 | 0.00 | 54 | 1015.5 |
| 20260906014604 | 71 | 337 | 1.7 | 4.3 | 0.00 | 0.00 | 0.00 | 54 | 1015.6 |
| 20260906014034 | 70 | 352 | 1.7 | 6.1 | 0.00 | 0.00 | 0.00 | 54 | 1015.7 |
| 20260906013534 | 70 | 342 | 3.5 | 6.1 | 0.00 | 0.00 | 0.00 | 55 | 1015.7 |
| 20260906013100 | 69 | 319 | 1.7 | 3.5 | 0.00 | 0.00 | 0.00 | 57 | 1015.7 |
| 20260906012535 | 69 | 319 | 0.9 | 2.6 | 0.00 | 0.00 | 0.00 | 57 | 1015.7 |
| 20260906012035 | 69 | 319 | 0.9 | 2.6 | 0.00 | 0.00 | 0.00 | 55 | 1015.7 |
| 20260906011600 | 69 | 0 | 0.0 | 3.5 | 0.00 | 0.00 | 0.00 | 56 | 1015.8 |
| 20260906011035 | 69 | 319 | 1.7 | 3.5 | 0.00 | 0.00 | 0.00 | 57 | 1015.8 |
| 20260906010534 | 69 | 351 | 0.9 | 2.6 | 0.00 | 0.00 | 0.00 | 60 | 1015.9 |
| 20260906010140 | 69 | 351 | 0.0 | 1.7 | 0.00 | 0.00 | 0.00 | 59 | 1015.9 |
| 20260906005534 | 69 | 0 | 0.0 | 1.7 | 0.00 | 0.00 | 0.00 | 59 | 1015.9 |
| 20260906005038 | 69 | 351 | 0.9 | 1.7 | 0.00 | 0.00 | 0.00 | 58 | 1015.8 |
| 20260906004615 | 69 | 351 | 0.9 | 2.6 | 0.00 | 0.00 | 0.00 | 58 | 1015.9 |
| 20260906004035 | 69 | 0 | 0.9 | 2.6 | 0.00 | 0.00 | 0.00 | 58 | 1015.9 |
| 20260906003535 | 69 | 351 | 1.7 | 2.6 | 0.00 | 0.00 | 0.00 | 55 | 1015.9 |
| 20260906003103 | 69 | 351 | 0.0 | 3.5 | 0.00 | 0.00 | 0.00 | 51 | 1015.9 |
| 20260906002535 | 70 | 0 | 0.0 | 3.5 | 0.00 | 0.00 | 0.00 | 50 | 1016.0 |
| 20260906002035 | 70 | 351 | 0.9 | 3.5 | 0.00 | 0.00 | 0.00 | 54 | 1015.9 |
| 20260906001605 | 70 | 329 | 0.9 | 1.7 | 0.00 | 0.00 | 0.00 | 55 | 1015.8 |
| 20260906001034 | 71 | 329 | 0.9 | 1.7 | 0.00 | 0.00 | 0.00 | 54 | 1015.9 |
| 20260906000534 | 71 | 329 | 0.0 | 1.7 | 0.00 | 0.00 | 0.00 | 51 | 1015.8 |
| 20260905235536 | 71 | 329 | 0.0 | 1.7 | 0.00 | 0.00 | 0.00 | 48 | 1015.8 |
| 20260905235034 | 71 | 329 | 0.9 | 1.7 | 0.00 | 0.00 | 0.00 | 46 | 1015.9 |
| 20260905234555 | 72 | 329 | 0.0 | 1.7 | 0.00 | 0.00 | 0.00 | 46 | 1016.0 |
| 20260905234036 | 72 | 329 | 0.0 | 3.5 | 0.00 | 0.00 | 0.00 | 45 | 1016.0 |
| 20260905233534 | 72 | 0 | 0.9 | 3.5 | 0.00 | 0.00 | 0.00 | 45 | 1016.1 |
| 20260905233101 | 71 | 24 | 0.9 | 3.5 | 0.00 | 0.00 | 0.00 | 46 | 1016.1 |
| 20260905232534 | 72 | 333 | 0.9 | 3.5 | 0.00 | 0.00 | 0.00 | 47 | 1016.2 |
| 20260905232034 | 72 | 333 | 0.9 | 3.5 | 0.00 | 0.00 | 0.00 | 46 | 1016.2 |
| 20260905231612 | 72 | 334 | 1.7 | 3.5 | 0.00 | 0.00 | 0.00 | 46 | 1016.2 |
| 20260905231033 | 71 | 327 | 1.7 | 3.5 | 0.00 | 0.00 | 0.00 | 46 | 1016.3 |
| 20260905230533 | 72 | 319 | 1.7 | 3.5 | 0.00 | 0.00 | 0.00 | 46 | 1016.4 |
| 20260905225535 | 73 | 0 | 0.0 | 4.3 | 0.00 | 0.00 | 0.00 | 44 | 1016.4 |
| 20260905225033 | 73 | 351 | 0.0 | 5.2 | 0.00 | 0.00 | 0.00 | 43 | 1016.5 |
| 20260905224553 | 73 | 355 | 2.6 | 5.2 | 0.00 | 0.00 | 0.00 | 43 | 1016.5 |
| 20260905224033 | 72 | 329 | 2.6 | 5.2 | 0.00 | 0.00 | 0.00 | 44 | 1016.5 |
| 20260905223534 | 71 | 14 | 0.9 | 2.6 | 0.00 | 0.00 | 0.00 | 47 | 1016.6 |
| 20260905223102 | 71 | 314 | 0.0 | 1.7 | 0.00 | 0.00 | 0.00 | 47 | 1016.7 |
| 20260905222533 | 72 | 0 | 0.0 | 0.9 | 0.00 | 0.00 | 0.00 | 46 | 1016.6 |
| 20260905222033 | 72 | 0 | 0.0 | 2.6 | 0.00 | 0.00 | 0.00 | 46 | 1016.7 |
| 20260905221603 | 72 | 0 | 0.0 | 4.3 | 0.00 | 0.00 | 0.00 | 44 | 1016.6 |
| 20260905221034 | 72 | 0 | 1.7 | 4.3 | 0.00 | 0.00 | 0.00 | 45 | 1016.6 |
| 20260905220535 | 71 | 344 | 1.7 | 3.5 | 0.00 | 0.00 | 0.00 | 47 | 1016.6 |
| 20260905220100 | 72 | 344 | 0.9 | 2.6 | 0.00 | 0.00 | 0.00 | 48 | 1016.5 |
| 20260905215533 | 72 | 0 | 0.0 | 0.0 | 0.00 | 0.00 | 0.00 | 48 | 1016.6 |
| 20260905215032 | 73 | 0 | 0.0 | 0.0 | 0.00 | 0.00 | 0.00 | 47 | 1016.6 |
| 20260905214556 | 73 | 0 | 0.0 | 0.0 | 0.00 | 0.00 | 0.00 | 46 | 1016.5 |
| 20260905214033 | 73 | 0 | 0.0 | 0.9 | 0.00 | 0.00 | 0.00 | 46 | 1016.5 |
| 20260905213533 | 74 | 0 | 0.0 | 1.7 | 0.00 | 0.00 | 0.00 | 46 | 1016.6 |
| 20260905213104 | 74 | 0 | 0.0 | 1.7 | 0.00 | 0.00 | 0.00 | 46 | 1016.6 |
| 20260905212535 | 74 | 0 | 0.0 | 2.6 | 0.00 | 0.00 | 0.00 | 44 | 1016.6 |
| 20260905212031 | 74 | 344 | 0.9 | 2.6 | 0.00 | 0.00 | 0.00 | 44 | 1016.6 |
| 20260905211607 | 74 | 344 | 1.7 | 2.6 | 0.00 | 0.00 | 0.00 | 44 | 1016.6 |
| 20260905211033 | 74 | 344 | 0.9 | 3.5 | 0.00 | 0.00 | 0.00 | 45 | 1016.6 |
| 20260905210532 | 74 | 344 | 0.9 | 3.5 | 0.00 | 0.00 | 0.00 | 45 | 1016.7 |
| 20260905210120 | 74 | 340 | 1.7 | 3.5 | 0.00 | 0.00 | 0.00 | 45 | 1016.7 |
| 20260905205533 | 74 | 340 | 1.7 | 3.5 | 0.00 | 0.00 | 0.00 | 45 | 1016.7 |
| 20260905205033 | 74 | 352 | 0.9 | 3.5 | 0.00 | 0.00 | 0.00 | 46 | 1016.6 |
| 20260905204604 | 74 | 338 | 0.9 | 1.7 | 0.00 | 0.00 | 0.00 | 46 | 1016.7 |
| 20260905204031 | 74 | 352 | 0.0 | 2.6 | 0.00 | 0.00 | 0.00 | 45 | 1016.7 |
| 20260905203533 | 75 | 0 | 0.0 | 2.6 | 0.00 | 0.00 | 0.00 | 45 | 1016.6 |
| 20260905203055 | 75 | 352 | 0.9 | 2.6 | 0.00 | 0.00 | 0.00 | 45 | 1016.6 |
| 20260905202533 | 75 | 0 | 0.9 | 5.2 | 0.00 | 0.00 | 0.00 | 45 | 1016.6 |
| 20260905202032 | 75 | 351 | 0.9 | 5.2 | 0.00 | 0.00 | 0.00 | 45 | 1016.5 |
| 20260905201605 | 76 | 331 | 3.5 | 5.2 | 0.00 | 0.00 | 0.00 | 44 | 1016.5 |
| 20260905201034 | 76 | 352 | 0.9 | 2.6 | 0.00 | 0.00 | 0.00 | 44 | 1016.6 |
| 20260905200534 | 77 | 0 | 0.0 | 2.6 | 0.00 | 0.00 | 0.00 | 43 | 1016.6 |
| 20260905200119 | 77 | 355 | 0.9 | 2.6 | 0.00 | 0.00 | 0.00 | 43 | 1016.5 |
| 20260905195534 | 77 | 355 | 0.0 | 1.7 | 0.00 | 0.00 | 0.00 | 43 | 1016.5 |
| 20260905195035 | 78 | 355 | 0.0 | 2.6 | 0.00 | 0.00 | 0.00 | 43 | 1016.5 |
| 20260905194600 | 78 | 355 | 0.9 | 5.2 | 0.00 | 0.00 | 0.00 | 42 | 1016.5 |
| 20260905194034 | 78 | 264 | 1.7 | 7.8 | 0.00 | 0.00 | 0.00 | 42 | 1016.5 |
| 20260905193534 | 78 | 331 | 3.5 | 7.8 | 0.00 | 0.00 | 0.00 | 43 | 1016.5 |
| 20260905193101 | 78 | 340 | 4.3 | 7.8 | 0.00 | 0.00 | 0.00 | 44 | 1016.6 |
| 20260905192534 | 77 | 341 | 5.2 | 7.8 | 0.00 | 0.00 | 0.00 | 45 | 1016.6 |
| 20260905192037 | 77 | 337 | 4.3 | 7.0 | 0.00 | 0.00 | 0.00 | 47 | 1016.7 |
| 20260905191600 | 77 | 337 | 2.6 | 5.2 | 0.00 | 0.00 | 0.00 | 47 | 1016.8 |
| 20260905191034 | 77 | 17 | 2.6 | 4.3 | 0.00 | 0.00 | 0.00 | 47 | 1016.9 |
| 20260905190535 | 77 | 355 | 2.6 | 5.2 | 0.00 | 0.00 | 0.00 | 47 | 1016.8 |
| 20260905190056 | 77 | 352 | 2.6 | 5.2 | 0.00 | 0.00 | 0.00 | 47 | 1016.8 |
| 20260905185534 | 78 | 352 | 1.7 | 5.2 | 0.00 | 0.00 | 0.00 | 46 | 1016.8 |
| 20260905185034 | 78 | 352 | 2.6 | 5.2 | 0.00 | 0.00 | 0.00 | 46 | 1016.7 |
| 20260905184607 | 78 | 327 | 2.6 | 5.2 | 0.00 | 0.00 | 0.00 | 47 | 1016.5 |
| 20260905184039 | 78 | 336 | 2.6 | 4.3 | 0.00 | 0.00 | 0.00 | 47 | 1016.6 |
| 20260905183534 | 78 | 339 | 2.6 | 3.5 | 0.00 | 0.00 | 0.00 | 47 | 1016.6 |
| 20260905183103 | 79 | 345 | 1.7 | 3.5 | 0.00 | 0.00 | 0.00 | 47 | 1016.6 |
| 20260905182533 | 79 | 345 | 0.0 | 4.3 | 0.00 | 0.00 | 0.00 | 46 | 1016.6 |
| 20260905182037 | 80 | 0 | 0.0 | 4.3 | 0.00 | 0.00 | 0.00 | 46 | 1016.5 |
| 20260905181559 | 80 | 345 | 1.7 | 4.3 | 0.00 | 0.00 | 0.00 | 47 | 1016.4 |
| 20260905181033 | 80 | 347 | 1.7 | 4.3 | 0.00 | 0.00 | 0.00 | 46 | 1016.4 |
| 20260905180532 | 80 | 344 | 0.9 | 5.2 | 0.00 | 0.00 | 0.00 | 46 | 1016.3 |
| 20260905180057 | 80 | 340 | 3.5 | 7.0 | 0.00 | 0.00 | 0.00 | 45 | 1016.2 |
| 20260905175534 | 80 | 15 | 3.5 | 7.0 | 0.00 | 0.00 | 0.00 | 44 | 1016.4 |
| 20260905175037 | 80 | 332 | 4.3 | 8.7 | 0.00 | 0.00 | 0.00 | 44 | 1016.3 |
| 20260905174609 | 81 | 338 | 4.3 | 8.7 | 0.00 | 0.00 | 0.00 | 44 | 1016.3 |
| 20260905174037 | 81 | 318 | 4.3 | 8.7 | 0.00 | 0.00 | 0.00 | 44 | 1016.3 |
| 20260905173534 | 81 | 336 | 4.3 | 7.8 | 0.00 | 0.00 | 0.00 | 44 | 1016.2 |
| 20260905173103 | 81 | 340 | 2.6 | 5.2 | 0.00 | 0.00 | 0.00 | 43 | 1016.2 |
| 20260905172536 | 81 | 334 | 0.9 | 4.3 | 0.00 | 0.00 | 0.00 | 43 | 1016.2 |
| 20260905172036 | 81 | 352 | 1.7 | 4.3 | 0.00 | 0.00 | 0.00 | 42 | 1016.1 |
| 20260905171559 | 82 | 352 | 2.6 | 4.3 | 0.00 | 0.00 | 0.00 | 42 | 1016.0 |
| 20260905171034 | 82 | 45 | 1.7 | 7.0 | 0.00 | 0.00 | 0.00 | 41 | 1015.9 |
| 20260905170534 | 82 | 352 | 2.6 | 7.8 | 0.00 | 0.00 | 0.00 | 40 | 1015.9 |
| 20260905170104 | 83 | 330 | 2.6 | 9.6 | 0.00 | 0.00 | 0.00 | 40 | 1015.9 |
| 20260905165534 | 83 | 323 | 2.6 | 10.4 | 0.00 | 0.00 | 0.00 | 39 | 1015.8 |
| 20260905165035 | 83 | 16 | 6.1 | 10.4 | 0.00 | 0.00 | 0.00 | 38 | 1015.8 |
| 20260905164602 | 84 | 342 | 5.2 | 10.4 | 0.00 | 0.00 | 0.00 | 38 | 1015.9 |
| 20260905164034 | 84 | 309 | 5.2 | 10.4 | 0.00 | 0.00 | 0.00 | 37 | 1015.8 |
| 20260905163534 | 84 | 330 | 7.0 | 12.2 | 0.00 | 0.00 | 0.00 | 37 | 1015.8 |
| 20260905163102 | 85 | 331 | 7.0 | 12.2 | 0.00 | 0.00 | 0.00 | 36 | 1015.9 |
| 20260905162533 | 85 | 338 | 7.0 | 13.0 | 0.00 | 0.00 | 0.00 | 36 | 1015.8 |
| 20260905162034 | 85 | 304 | 7.0 | 13.0 | 0.00 | 0.00 | 0.00 | 35 | 1015.9 |
| 20260905161558 | 86 | 337 | 7.8 | 13.9 | 0.00 | 0.00 | 0.00 | 35 | 1015.9 |
| 20260905161035 | 86 | 338 | 8.7 | 17.4 | 0.00 | 0.00 | 0.00 | 35 | 1015.9 |
| 20260905160534 | 86 | 340 | 8.7 | 17.4 | 0.00 | 0.00 | 0.00 | 34 | 1015.9 |
| 20260905160057 | 86 | 322 | 8.7 | 15.6 | 0.00 | 0.00 | 0.00 | 34 | 1015.9 |
| 20260905155534 | 86 | 330 | 10.4 | 14.8 | 0.00 | 0.00 | 0.00 | 34 | 1015.9 |
| 20260905155033 | 87 | 343 | 6.1 | 14.8 | 0.00 | 0.00 | 0.00 | 35 | 1016.0 |
| 20260905154606 | 87 | 341 | 9.6 | 14.8 | 0.00 | 0.00 | 0.00 | 35 | 1015.9 |
| 20260905154034 | 87 | 349 | 9.6 | 14.8 | 0.00 | 0.00 | 0.00 | 35 | 1015.9 |
| 20260905153537 | 87 | 329 | 8.7 | 12.2 | 0.00 | 0.00 | 0.00 | 34 | 1015.9 |
| 20260905153102 | 88 | 342 | 6.1 | 16.5 | 0.00 | 0.00 | 0.00 | 34 | 1015.8 |
| 20260905152535 | 88 | 355 | 7.8 | 16.5 | 0.00 | 0.00 | 0.00 | 34 | 1015.9 |
| 20260905152034 | 88 | 340 | 9.6 | 16.5 | 0.00 | 0.00 | 0.00 | 34 | 1015.9 |
| 20260905151636 | 88 | 335 | 8.7 | 13.9 | 0.00 | 0.00 | 0.00 | 34 | 1015.9 |
| 20260905151034 | 88 | 329 | 7.0 | 16.5 | 0.00 | 0.00 | 0.00 | 33 | 1015.9 |
| 20260905150534 | 88 | 30 | 8.7 | 16.5 | 0.00 | 0.00 | 0.00 | 33 | 1015.8 |
| 20260905150100 | 88 | 328 | 8.7 | 16.5 | 0.00 | 0.00 | 0.00 | 33 | 1015.8 |
| 20260905145535 | 89 | 321 | 8.7 | 16.5 | 0.00 | 0.00 | 0.00 | 33 | 1015.8 |
| 20260905145035 | 89 | 338 | 7.8 | 15.6 | 0.00 | 0.00 | 0.00 | 33 | 1015.7 |
| 20260905144600 | 89 | 343 | 9.6 | 19.1 | 0.00 | 0.00 | 0.00 | 33 | 1015.6 |
| 20260905144034 | 89 | 333 | 12.2 | 19.1 | 0.00 | 0.00 | 0.00 | 33 | 1015.7 |
| 20260905143534 | 89 | 352 | 7.0 | 18.2 | 0.00 | 0.00 | 0.00 | 33 | 1015.7 |
| 20260905143101 | 88 | 338 | 8.7 | 18.2 | 0.00 | 0.00 | 0.00 | 34 | 1015.6 |
| 20260905142535 | 89 | 329 | 11.3 | 21.7 | 0.00 | 0.00 | 0.00 | 33 | 1015.6 |
| 20260905142034 | 89 | 341 | 12.2 | 21.7 | 0.00 | 0.00 | 0.00 | 33 | 1015.5 |
| 20260905141558 | 89 | 343 | 12.2 | 20.0 | 0.00 | 0.00 | 0.00 | 32 | 1015.6 |
| 20260905141034 | 89 | 331 | 11.3 | 19.1 | 0.00 | 0.00 | 0.00 | 31 | 1015.6 |
| 20260905140533 | 89 | 340 | 11.3 | 19.1 | 0.00 | 0.00 | 0.00 | 31 | 1015.6 |
| 20260905140100 | 90 | 307 | 11.3 | 18.2 | 0.00 | 0.00 | 0.00 | 31 | 1015.6 |
| 20260905135624 | 90 | 340 | 11.3 | 18.2 | 0.00 | 0.00 | 0.00 | 30 | 1015.7 |
| 20260905135035 | 90 | 331 | 10.4 | 18.2 | 0.00 | 0.00 | 0.00 | 31 | 1015.7 |
| 20260905134556 | 90 | 334 | 9.6 | 17.4 | 0.00 | 0.00 | 0.00 | 31 | 1015.7 |
| 20260905134040 | 90 | 344 | 10.4 | 19.1 | 0.00 | 0.00 | 0.00 | 31 | 1015.7 |
| 20260905133533 | 90 | 317 | 9.6 | 19.1 | 0.00 | 0.00 | 0.00 | 30 | 1015.8 |
| 20260905133101 | 90 | 332 | 11.3 | 20.0 | 0.00 | 0.00 | 0.00 | 31 | 1015.8 |
| 20260905132534 | 90 | 338 | 9.6 | 20.0 | 0.00 | 0.00 | 0.00 | 30 | 1015.8 |
| 20260905132034 | 91 | 340 | 10.4 | 20.9 | 0.00 | 0.00 | 0.00 | 30 | 1015.8 |
| 20260905131608 | 90 | 335 | 12.2 | 20.9 | 0.00 | 0.00 | 0.00 | 30 | 1015.9 |
| 20260905131033 | 90 | 338 | 14.8 | 20.9 | 0.00 | 0.00 | 0.00 | 30 | 1016.0 |
| 20260905130535 | 91 | 304 | 10.4 | 19.1 | 0.00 | 0.00 | 0.00 | 30 | 1015.9 |
| 20260905130059 | 91 | 335 | 8.7 | 19.1 | 0.00 | 0.00 | 0.00 | 30 | 1016.0 |
| 20260905125534 | 91 | 355 | 10.4 | 17.4 | 0.00 | 0.00 | 0.00 | 29 | 1016.1 |
| 20260905125035 | 90 | 342 | 11.3 | 17.4 | 0.00 | 0.00 | 0.00 | 29 | 1016.0 |
| 20260905124558 | 91 | 324 | 11.3 | 17.4 | 0.00 | 0.00 | 0.00 | 29 | 1016.0 |
| 20260905124037 | 91 | 338 | 11.3 | 16.5 | 0.00 | 0.00 | 0.00 | 30 | 1016.0 |
| 20260905123535 | 91 | 337 | 12.2 | 16.5 | 0.00 | 0.00 | 0.00 | 30 | 1016.0 |
| 20260905123114 | 92 | 355 | 7.8 | 16.5 | 0.00 | 0.00 | 0.00 | 29 | 1016.0 |
| 20260905122535 | 91 | 352 | 10.4 | 14.8 | 0.00 | 0.00 | 0.00 | 29 | 1016.1 |
| 20260905122038 | 92 | 360 | 9.6 | 20.9 | 0.00 | 0.00 | 0.00 | 29 | 1016.2 |
| 20260905121600 | 91 | 308 | 13.0 | 20.9 | 0.00 | 0.00 | 0.00 | 29 | 1016.1 |
| 20260905121037 | 91 | 15 | 9.6 | 16.5 | 0.00 | 0.00 | 0.00 | 29 | 1016.2 |
| 20260905120536 | 91 | 355 | 10.4 | 17.4 | 0.00 | 0.00 | 0.00 | 29 | 1016.2 |
| 20260905120101 | 91 | 333 | 8.7 | 18.2 | 0.00 | 0.00 | 0.00 | 29 | 1016.2 |
| 20260905115533 | 91 | 331 | 8.7 | 19.1 | 0.00 | 0.00 | 0.00 | 28 | 1016.2 |
| 20260905115039 | 91 | 246 | 12.2 | 19.1 | 0.00 | 0.00 | 0.00 | 27 | 1016.3 |
| 20260905114558 | 91 | 321 | 8.7 | 20.0 | 0.00 | 0.00 | 0.00 | 29 | 1016.2 |
| 20260905114036 | 91 | 344 | 11.3 | 20.0 | 0.00 | 0.00 | 0.00 | 28 | 1016.3 |
| 20260905113535 | 91 | 319 | 7.8 | 20.0 | 0.00 | 0.00 | 0.00 | 29 | 1016.3 |
| 20260905113112 | 91 | 342 | 9.6 | 20.0 | 0.00 | 0.00 | 0.00 | 29 | 1016.2 |
| 20260905112535 | 91 | 335 | 9.6 | 21.7 | 0.00 | 0.00 | 0.00 | 30 | 1016.3 |
| 20260905112035 | 91 | 352 | 10.4 | 21.7 | 0.00 | 0.00 | 0.00 | 28 | 1016.3 |
| 20260905111605 | 91 | 352 | 9.6 | 16.5 | 0.00 | 0.00 | 0.00 | 30 | 1016.3 |
| 20260905111036 | 91 | 352 | 10.4 | 17.4 | 0.00 | 0.00 | 0.00 | 30 | 1016.3 |
| 20260905110539 | 91 | 315 | 8.7 | 18.2 | 0.00 | 0.00 | 0.00 | 30 | 1016.4 |
| 20260905110057 | 91 | 290 | 8.7 | 18.2 | 0.00 | 0.00 | 0.00 | 31 | 1016.5 |
| 20260905105536 | 91 | 355 | 10.4 | 19.1 | 0.00 | 0.00 | 0.00 | 31 | 1016.4 |
| 20260905105037 | 91 | 355 | 7.8 | 19.1 | 0.00 | 0.00 | 0.00 | 31 | 1016.5 |
| 20260905104556 | 91 | 290 | 10.4 | 19.1 | 0.00 | 0.00 | 0.00 | 31 | 1016.5 |
| 20260905104035 | 91 | 352 | 8.7 | 21.7 | 0.00 | 0.00 | 0.00 | 31 | 1016.4 |
| 20260905103536 | 90 | 338 | 11.3 | 21.7 | 0.00 | 0.00 | 0.00 | 31 | 1016.3 |
| 20260905103105 | 90 | 352 | 13.9 | 21.7 | 0.00 | 0.00 | 0.00 | 31 | 1016.4 |
| 20260905102537 | 91 | 339 | 10.4 | 20.0 | 0.00 | 0.00 | 0.00 | 30 | 1016.4 |
| 20260905102035 | 90 | 355 | 8.7 | 22.6 | 0.00 | 0.00 | 0.00 | 31 | 1016.3 |